Погода в Житьеве

Россия / Вологодская область     59°54′22″N   41°06′20″E
темп.,
°C
ветер,
м/с
пор.,
м/с
влажн.,
%
обл.,
%
осадки,
мм/ч
давл.,
гПа
погр.,
м
30 ноября, вт
вт3000:00−5всв51394100 0.9 1001444
03:00−4всв51494100 1.1 995506
06:00−3всв61793100 0.3 989681
09:00−2всв71896100 1.6 981812
12:000в71598100 4.9 974933
15:00+3ююв413100100 7.9 969918
18:00+2ююв51392100 0.3 970941
21:000ююв41098100 0.7 971756
1 декабря, ср
ср100:00−2юв399471 0.1 971354
03:00−4ююв269668 0.2 973172
06:00−7ююв259895 0.1 975119
09:00−6ююз269684 0.2 978169
12:00−5ююз379298 0.1 980567
15:00−5ююз389474 0.3 981489
18:00−7юз389598 0.1 983264
21:00−7зюз3895100 0.4 985383
2 декабря, чт
чт200:00−8з3895100 0.2 987334
03:00−8зюз399599 0.3 989409
06:00−8з41093100 0.2 990580
09:00−12зюз3109595 0.3 994295
12:00−11зюз399571 0.0 996298
15:00−12юз2796100 0.0 997153
18:00−11юз279593 0.0 997233
21:00−11ююв1398100 0.0 99775
3 декабря, пт
пт300:00−8юв1497100 0.1 997128
03:00−8вюв2497100 0.2 997157
06:00−7вюв2596100 0.4 997222
09:00−6в2596100 0.9 997235
12:00−5всв249687 0.4 998254
15:00−6всв259783 0.8 1000171
18:00−7в2697100 0.3 1002163
21:00−6в2597100 0.6 1002148
4 декабря, сб
сб400:00−4вюв2697100 0.2 1002198
03:00−3в3797100 1.3 999389
06:00−4св3996100 1.9 996423
09:00−7ссв3796100 4.3 995376
12:00−7сз1195100 1.4 997207
15:00−7зюз41192100 1.7 1000578
18:00−9юз41293100 0.1 1003582
21:00−8юз4129299 0.3 1004689